This is the latest recevied weather packets stored in our database for station/object KN6WGU. If no packets are shown the sender has not sent any weather packets the latest 10 day(s).
| Time | Temp. | Humidity | Pressure | Rain* | Wind** | Luminosity | Snow |
|---|---|---|---|---|---|---|---|
| 1778034573 | 9.44° C | 99% | 1002.8 hPa | 6.6 mm | - | 0 W/m² | - |
| 1778034270 | 9.44° C | 99% | 1002.7 hPa | 7.87 mm | - | 0 W/m² | - |
| 1778033968 | 9.44° C | 99% | 1002.6 hPa | 6.1 mm | - | 0 W/m² | - |
| 1778033665 | 9.44° C | 99% | 1002.5 hPa | 4.32 mm | - | 0 W/m² | - |
| 1778033362 | 9.44° C | 99% | 1002.3 hPa | 4.83 mm | - | 0 W/m² | - |
| 1778033060 | 9.44° C | 99% | 1002.3 hPa | 3.05 mm | - | 0 W/m² | - |
| 1778032757 | 9.44° C | 99% | 1002.5 hPa | 3.05 mm | - | 0 W/m² | - |
| 1778032454 | 9.44° C | 99% | 1002.2 hPa | 3.56 mm | - | 0 W/m² | - |
| 1778032151 | 9.44° C | 99% | 1002.1 hPa | 1.78 mm | - | 0 W/m² | - |
| 1778031848 | 9.44° C | 99% | 1002.2 hPa | 0 mm | - | 0 W/m² | - |
| 1778031545 | 9.44° C | 99% | 1002.2 hPa | 0 mm | - | 0 W/m² | - |
| 1778031243 | 9.44° C | 99% | 1001.8 hPa | 1.27 mm | - | 0 W/m² | - |
| 1778030938 | 9.44° C | 99% | 1001.9 hPa | 3.05 mm | - | 0 W/m² | - |
| 1778030635 | 9.44° C | 99% | 1001.9 hPa | 1.78 mm | - | 0 W/m² | - |
| 1778030332 | 9.44° C | 99% | 1001.8 hPa | 1.27 mm | - | 0 W/m² | - |
| 1778030029 | 9.44° C | 99% | 1001.8 hPa | 1.27 mm | - | 0 W/m² | - |
| 1778029726 | 9.44° C | 99% | 1001.8 hPa | 1.78 mm | - | 0 W/m² | - |
| 1778029425 | 9.44° C | 99% | 1001.8 hPa | 1.78 mm | - | 0 W/m² | - |
| 1778029121 | 9.44° C | 99% | 1001.9 hPa | 0 mm | - | 0 W/m² | - |
| 1778028818 | 9.44° C | 99% | 1001.8 hPa | 1.27 mm | - | 0 W/m² | - |
| 1778028514 | 9.44° C | 99% | 1002 hPa | 1.27 mm | - | 0 W/m² | - |
| 1778028212 | 9.44° C | 99% | 1001.9 hPa | 1.78 mm | - | 0 W/m² | - |
| 1778027908 | 9.44° C | 99% | 1001.9 hPa | 3.05 mm | - | 0 W/m² | - |
| 1778027604 | 9.44° C | 99% | 1002 hPa | 3.05 mm | - | 0 W/m² | - |
| 1778027300 | 9.44° C | 99% | 1001.8 hPa | 1.78 mm | - | 0 W/m² | - |
* Rain latest hour (hover to see other rain measurements)
** Current wind speed in m/s (hover to see current wind gust speed)